Location: Barrio de Buenos Aires
(28.4500°N, 16.2667°W)
Time: 13:09:32
(UTC+00:00)

SL-16 R/B - Pass Details

Date: 24 January 2020
Orbit: 841 x 848 km, 71.0° (Epoch: 22 February)

Event Time Altitude Azimuth Distance (km) Brightness Sun altitude
Rises 19:08:35 0° 357° (N) 3,406 5.2 -7.2°
Reaches altitude 10° 19:11:33 10° 11° (N) 2,467 4.4 -7.8°
Maximum altitude 19:16:01 24° 63° (ENE) 1,697 3.2 -8.8°
Drops below altitude 10° 19:20:27 10° 116° (ESE) 2,455 4.2 -9.7°
Sets 19:23:22 0° 130° (SE) 3,386 5.0 -10.3°
